Other Surface Observations
Issued by NWS

Home | Current Version | Previous Version | Text Only | Print | Product List | Glossary On
Versions: 1 2 3 4 5 6 7 8 9 10 11 12 13 14 15 16 17 18 19 20 21 22 23 24 25 26 27 28 29 30 31 32 33 34 35 36 37 38 39 40 41 42 43 44 45 46 47 48 49 50
000
SXUS52 KTAE 280918
OSOTAE
OSOTAE
North Florida/South Alabama/Southwest Georgia Weather Roundup
National Weather Service Tallahassee Florida
500 AM EDT THU MAY 28 2015

Note: "fair" indicates few or no clouds below 12,000 feet with no
significant weather and/or obstructions to visibility.

!FLZ017-115-028-034-025-281000
...North Florida...

CITY           SKY/WX    TMP DP  RH WIND       PRES   REMARKS
TALLAHASSEE    CLEAR     72  67  84 E7        30.11S
APALACHICOLA   CLEAR     74  69  85 NE5       30.08F
PERRY          CLEAR     69  67  95 CALM      30.13S
CROSS CITY       N/A     68  64  87 CALM      30.11S
JACKSONVILLE   PTCLDY    64  63  96 CALM      30.14S
$$

!FLZ112-006-005-002-011-281000
...Florida Panhandle...

CITY           SKY/WX    TMP DP  RH WIND       PRES   REMARKS
MARIANNA       CLEAR     70  70 100 NE3       30.10F
BONIFAY        FAIR      68  67  96 CALM      30.11S
PANAMA CITY NW FAIR      70  68  93 NE5       30.09R
TYNDALL AFB    NOT AVBL
TYND DRONE APT PTSUNNY   72  71  97 NE7       30.08S
DE FUNIAK SPR  FAIR      68  68  99 MISG      30.10R
EGLIN AFB      NOT AVBL
DESTIN         PTCLDY    74  71  91 E5        30.08R
HURLBURT       PTCLDY    71  67  87 NW1       30.07R
CRESTVIEW      PTCLDY    67  66  97 CALM      30.11R FOG
PENSACOLA      MOCLDY    74  73  97 E5        30.08S
$$

!ALZ063-066-281000
...South Alabama...

CITY           SKY/WX    TMP DP  RH WIND       PRES   REMARKS
DOTHAN         CLEAR     69  67  93 E8        30.15S
OZARK CAIRNS   CLEAR     67  66  99 NE8       30.11S FOG
FT RUCKER HELI CLEAR     67  65  93 NE3       30.10F
RUCKER HELI 3  FAIR      66  66  98 E6        30.12F
RUCKER HELI 2  FAIR      67  67 100 NE7       30.11S
FLORALA APT    FOG       68  67  96 NE3       30.12R VSB 1/2
ANDALUSIA      PTCLDY    70  66  87 SE5       30.10S
TROY           CLEAR     68  66  93 E5        30.13S
EUFALA         FAIR      68  66  94 CALM      30.12S FOG
MOBILE         CLOUDY    71  71 100 CALM      30.10R
$$

!GAZ120>161-281000
...Southwest and South Central Georgia...

CITY           SKY/WX    TMP DP  RH WIND       PRES   REMARKS
THOMASVILLE    FAIR      66  66 100 CALM      30.14S
BAINBRIDGE     CLEAR     73  72  94 E5        30.12S
MOODY AFB      CLEAR     67  64  91 NE5       30.13S
VALDOSTA       CLEAR     68  66  93 CALM      30.14S
MOULTRIE       CLEAR     68  66  94 CALM      30.14S
BLAKELY        CLEAR     70  70 100 CALM      30.13S
ALBANY         CLEAR     69  66  90 CALM      30.15S
TIFTON           N/A     67  67  97 CALM      30.14F
FITZGERALD     FAIR      67  65  91 CALM      30.18R
CORDELE        FAIR      70  69  98 CALM      30.16R
AMERICUS       FAIR      68  68 100 CALM      30.17R
HOMERVILLE     FAIR      64  64 100 CALM      30.16R
$$

!GMZ750-755-770-775-281000
...Coastal and Buoy Obs...

STATION/POSITION TIME  TEMP    WIND        PRES    VSBY  WAVE
                       AIR SEA DIR/SP/G                  HT/PER
                 (UTC) (F)     (DEG/KT/KT) (MB)    (MI)  (FT/S)
KEATON BEACH     0900   69      80/  7/  8 1019.6F
CEDAR KEY        0900   75     120/ 11/ 14 1019.8F
C TOWER          0900   77      80/ 14/ 15 1018.3F
APALACHICOLA BUO 0850   80 81   90/ 10/ 12 1018.1F         2/ 6
PANAMA CITY BUOY 0850   79 80  100/ 12/ 14 1018.4R         3/ 7
MOBILE BUOY      0850   78 79  120/  6/  6 1018.3F         3/ 6
ORANGE BCH AL BU 0850   80 80  140/  8/  8 1017.5F         3/ 6
$$



USA.gov is the U.S. government's official web portal to all federal, state and local government web resources and services.